Location: Cortile
(44.8000°N, 10.9833°E)
Time: 14:40:22
(UTC+00:00)

Daily predictions for brighter satellites

Satellite Brightness Start Highest point End
(mag) Time Altitude Azimuth Time Altitude Azimuth Time Altitude Azimuth
Cosmos 909 Rocket 4.1 18:33:45 10° SSW 18:39:59 59° ESE 18:46:15 10° NE
Cosmos 405 Rocket 3.6 18:38:23 10° N 18:42:00 32° ENE 18:45:31 10° SE
Cosmos 2237 Rocket 3.0 18:38:10 10° NNW 18:43:23 37° NE 18:48:33 10° ESE
Helios 1A Rocket 3.2 18:41:07 10° S 18:45:10 75° WSW 18:49:20 10° NNW
Cosmos 1818 3.6 18:41:07 10° SSW 18:46:33 85° SE 18:52:03 10° NE
DMSP B5D2-2 4.1 18:43:33 10° NNE 18:48:50 86° ESE 18:54:06 10° SSW
H-2A R/B 4.2 18:45:13 10° SSW 18:49:24 27° W 18:53:33 10° NW
Cosmos 1892 3.8 18:49:37 10° NNW 18:53:16 47° W 18:56:55 10° SSW
Cosmos 1825 2.1 18:51:06 10° N 18:54:54 77° E 18:58:40 10° SSE
MetOp-A 4.2 18:52:05 10° SSE 18:57:27 86° WSW 19:02:51 10° NNW
Cosmos 2227 Rocket 3.1 18:53:21 10° SSE 18:58:00 27° ESE 19:02:41 10° NE
Exosat Rocket 3.7 18:52:13 10° NNW 18:58:30 83° ENE 19:03:33 10° SSE
Abrixas rocket 2.0 18:57:40 10° W 18:59:08 31° NNW 19:00:36 10° NE
ATLAS 2AS CENTAUR R/B 3.9 18:52:36 10° WSW 19:00:20 55° NW 19:07:57 10° NNE
BREEZE-M DEB (TANK) 4.1 18:57:43 10° W 19:00:41 64° NNW 19:08:07 10° ENE
Cosmos 1092 Rocket 4.2 18:55:41 10° N 19:01:56 78° W 19:08:05 10° S
Cosmos 2297 Rocket 2.6 18:59:20 10° S 19:04:31 39° ESE 19:09:44 10° NE
Cosmos 2058 2.9 19:00:20 10° N 19:04:32 90° W 19:08:41 10° S
FALCON 9 DEB 3.5 19:03:11 10° SSW 19:05:58 33° SE 19:08:46 10° ENE
Cosmos 1633 3.7 19:04:09 10° NNE 19:07:11 25° ENE 19:09:15 15° ESE
Lacrosse 5 rocket 4.0 19:05:19 10° NW 19:07:54 16° N 19:10:34 10° NE
FALCON 9 DEB 3.0 19:07:44 10° SW 19:10:38 45° SE 19:13:33 10° ENE
Resurs 01 Rocket 2.4 19:08:36 13° SE 19:12:01 35° ENE 19:16:04 10° N
Cosmos 2219 3.5 19:08:25 10° S 19:13:38 41° ESE 19:18:54 10° NE
Resurs 1-3 3.7 19:09:23 10° SSE 19:13:41 59° ENE 19:18:01 10° N
Genesis I 4.1 19:11:17 10° NNW 19:15:02 36° NE 19:17:40 17° ESE
BREEZE-M DEB (TANK) 4.0 19:12:09 10° W 19:15:57 65° N 19:29:14 10° ENE
Cosmos 2333 Rocket 3.7 19:11:59 10° NW 19:17:11 36° WSW 19:22:20 10° S
SJ-6B 3.0 19:13:59 10° S 19:17:41 66° W 19:21:27 10° NNW
Cosmos 2084 Rocket 3.6 19:18:12 10° SSW 19:21:55 40° ESE 19:25:43 10° NE
Cosmos 389 Rocket 2.4 19:18:47 10° S 19:22:18 78° E 19:25:53 10° NNE
Cosmos 1190 Rocket 4.4 19:17:34 10° S 19:22:27 41° ESE 19:27:20 10° NE
FALCON 9 DEB 2.7 19:19:41 10° SW 19:22:41 64° SE 19:25:42 10° ENE
ERS-2 4.2 19:20:09 10° N 19:23:25 31° WNW 19:26:39 10° SW
Ariane Rocket 3.0 19:19:00 10° SSE 19:24:02 88° E 19:29:08 10° NNW
Cosmos 614 Rocket 4.1 19:20:52 10° SSW 19:25:59 76° WNW 19:31:07 10° NNE
Terra 4.0 19:26:03 10° ENE 19:26:50 10° NE 19:27:37 10° NE
Cosmos 2251 Rocket 4.4 19:22:33 10° SW 19:27:48 55° WNW 19:33:04 10° NNE
ATLAS 3B R/B 3.4 19:25:03 10° NW 19:31:53 54° WSW 19:38:59 10° SSE
Cosmos 2279 Rocket 3.9 19:26:15 10° S 19:32:26 86° E 19:38:40 10° N
SPOT 1/Viking Rocket 4.3 19:33:39 21° ESE 19:36:30 36° ENE 19:41:15 10° N
MOS 1 4.5 19:31:47 10° S 19:37:24 72° WSW 19:43:04 10° NNW
Cosmos-2242 3.3 19:35:48 19° SSE 19:38:37 45° E 19:42:43 10° NNE
Cosmos 1980 3.7 19:34:06 10° NNW 19:39:49 82° WSW 19:44:11 18° SSE
USA 215 4.0 19:34:16 13° E 19:39:49 45° NNE 19:45:59 10° NW
SL-16 R/B 3.0 19:35:08 10° NNW 19:40:25 38° NE 19:43:26 22° ESE
Cosmos 2151 3.0 19:37:23 10° N 19:41:42 64° E 19:44:10 24° SSE
SPOT 3 Rocket 3.5 19:40:39 20° SSE 19:44:19 70° ENE 19:49:29 10° N
FALCON 9 DEB 2.7 19:41:26 10° SW 19:44:29 85° SE 19:46:41 17° ENE
COSMOS 2455 3.2 19:42:15 10° S 19:47:48 40° ESE 19:53:21 10° NE
SL-4 R/B 2.1 19:47:05 10° SW 19:51:25 79° SSE 19:56:06 10° ENE
Cosmos 2219 Rocket 4.4 19:49:49 10° NW 19:53:59 21° W 19:58:09 10° SSW
BREEZE M DEB (TANK) 3.8 19:51:09 10° SSW 19:54:31 49° SE 20:04:13 10° ENE
ERS-1 Rocket 4.1 19:53:53 23° E 19:55:26 27° ENE 19:59:37 10° N
IGS 5A 3.3 19:54:21 29° SSE 19:56:23 83° ENE 20:00:33 10° N
OBJECT-B 3.5 19:55:24 10° SW 19:57:42 18° W 20:00:00 10° NW
Landsat 7 3.7 19:55:13 28° SSE 19:57:45 76° ENE 20:02:32 10° N
Cosmos 1076 Rocket 4.5 19:53:41 10° NNW 19:57:50 45° W 20:01:45 11° SSW
Cosmos 2266 Rocket 4.0 19:52:09 10° N 19:58:33 74° E 20:02:36 23° SSE
ATLAS 5 CENTAUR R/B 3.7 19:59:17 10° WSW 20:00:15 12° SW 20:01:00 11° SSW
Timation 1 Rocket 4.4 19:57:05 10° S 20:02:48 51° ESE 20:08:34 10° NE
Cosmos 2221 4.2 20:05:05 18° ENE 20:05:05 18° ENE 20:07:12 10° NE
ARIANE 5 R/B 3.1 20:04:04 36° ESE 20:05:06 42° ENE 20:09:15 10° N
Cosmos 2344 4.5 19:58:49 10° WSW 20:05:59 50° NW 20:13:50 10° NE
USA 245 3.2 20:05:50 48° E 20:06:00 49° ENE 20:09:00 10° N
Cosmos 407 Rocket 3.9 20:01:31 10° SSW 20:06:35 62° WNW 20:11:45 10° NNE
MetOp-B 4.1 20:09:17 29° SSE 20:12:08 89° WSW 20:17:32 10° NNW
Meteor 2-3 Rocket 3.8 20:08:47 10° NNW 20:14:33 81° W 20:17:47 27° S
Meteor 1-27 4.2 20:14:09 20° S 20:18:12 80° E 20:24:03 10° NNE
Cosmos 44 Rocket 3.3 20:13:19 10° SSW 20:18:17 61° ESE 20:23:26 10° NE
Cosmos 1140 Rocket 4.1 20:14:52 10° SW 20:19:53 54° WNW 20:24:56 10° NNE
Cosmos 1954 Rocket 3.9 20:19:29 14° SSW 20:23:54 88° ESE 20:29:06 10° NNE
CZ-2C R/B 3.7 20:20:43 10° N 20:25:09 74° WNW 20:27:43 25° SSW
Timation 2 Rocket 4.3 20:20:25 10° SW 20:26:57 68° WNW 20:33:16 10° NNE
Cosmos 2237 Rocket 3.3 20:22:17 10° NW 20:27:24 37° WSW 20:30:47 19° SSW
Meteor 2-15 4.5 20:29:12 42° SSE 20:31:02 58° E 20:36:58 10° NNE
Cosmos 2263 Rocket 3.5 20:34:38 23° ENE 20:34:38 23° ENE 20:37:29 10° NE
Spot 2 Rocket 3.4 20:32:07 49° SSE 20:33:31 87° E 20:38:37 10° NNW
CARTOSAT-1 3.4 20:33:27 68° ESE 20:33:50 73° ENE 20:38:09 10° N
Aureole 1 Rocket 4.5 20:35:06 31° ENE 20:35:06 31° ENE 20:38:18 10° NE
BREEZE M DEB (TANK) 3.2 20:29:00 10° W 20:35:32 49° NNW 20:36:34 33° NE
Cosmos 1766 Rocket 3.5 20:31:23 10° N 20:35:45 82° W 20:36:22 65° S
Cosmos 2227 Rocket 3.1 20:36:17 10° SW 20:41:46 49° WNW 20:47:15 10° NNE
FALCON 9 DEB 4.5 20:38:55 10° W 20:41:38 35° NNW 20:41:38 35° NNW
Cosmos 2082 3.6 20:37:15 16° SSW 20:41:46 87° WNW 20:47:26 10° NNE
Okean 3 Rocket 3.8 20:40:25 10° NNW 20:44:54 66° W 20:45:39 56° SW
Lacrosse 5 rocket 3.4 20:44:53 10° NNW 20:48:21 23° NNE 20:49:58 19° NE
Cosmos 1869 3.9 20:47:58 48° WSW 20:48:32 54° W 20:52:26 10° N
Resurs 01 Rocket 3.5 20:46:10 16° SW 20:48:33 25° W 20:52:14 10° NW
Cosmos 2297 Rocket 3.8 20:43:27 10° WSW 20:48:35 35° NW 20:53:46 10° NNE
Cosmos 1553 Rocket 4.2 20:48:26 46° ESE 20:48:55 47° E 20:54:44 10° NNE
Meteor 1-4 Rocket 3.3 20:50:30 48° WNW 20:50:30 48° WNW 20:53:42 10° N
Cosmos 468 Rocket 3.8 20:46:03 10° NNW 20:51:13 83° ENE 20:51:46 71° SE
Cosmos 1603 4.4 20:49:47 10° NNW 20:55:08 39° NE 20:55:59 37° ENE
Cosmos 841 Rocket 4.0 20:51:04 10° N 20:56:02 43° ENE 20:56:15 43° ENE
Terra 1.8 21:03:52 75° NE 21:03:52 75° NE 21:08:30 10° N
Cosmos 1763 Rocket 3.3 20:58:58 10° NNW 21:04:04 80° WSW 21:04:17 78° SSW
Cosmos 540 Rocket 3.5 21:06:45 10° NNW 21:11:41 65° NE 21:11:41 65° NE
Cosmos 921 Rocket 4.1 21:09:02 10° N 21:12:21 38° NNE 21:12:21 38° NNE
SPOT 5 3.0 21:14:08 62° W 21:14:08 62° W 21:18:52 10° NNW
Meteor 2-2 Rocket 4.3 21:15:41 61° SSW 21:16:42 79° W 21:22:25 10° N
NOSS 3-1 (C) 4.0 21:10:29 10° NW 21:18:04 89° ENE 21:20:23 54° SE
Cosmos 1842 Rocket 4.0 21:20:26 60° NW 21:20:26 60° NW 21:24:24 10° N
USA 215 3.1 21:21:36 63° SSE 21:22:36 75° SW 21:29:10 10° NW
SL-16 R/B 3.2 21:19:21 10° NW 21:24:30 36° WSW 21:25:19 35° SW
SL-08 ROCKET BODY 4.3 21:25:08 10° N 21:31:11 79° W 21:31:36 74° SW
SL-4 R/B 3.5 21:27:08 10° W 21:31:26 41° NNW 21:33:32 26° NE
COSMOS 2455 4.0 21:28:05 10° WSW 21:33:43 40° NW 21:39:23 10° NNE
ERS-1 Rocket 3.8 21:33:53 40° WSW 21:34:02 40° W 21:38:47 10° NNW
Cosmos 2227 4.3 21:40:44 71° NE 21:40:44 71° NE 21:45:52 10° NNE
Cosmos 2221 3.8 21:41:54 36° WNW 21:41:54 36° WNW 21:45:24 10° N
Sich 1 4.4 21:38:56 10° N 21:41:28 33° NNE 21:41:28 33° NNE
Cosmos 1943 3.3 21:45:00 10° NNW 21:50:06 74° NNW 21:50:06 74° NNW
Cosmos 1745 Rocket 3.9 21:46:59 10° N 21:53:18 78° W 21:53:25 77° WSW
SeaSat 1 3.8 21:48:45 10° NE 21:51:19 30° NE 21:51:19 30° NE
Cosmos 1570 Rocket 4.4 21:48:50 10° NNW 21:53:15 62° NNW 21:53:15 62° NNW
Cosmos 1709 Rocket 4.0 21:52:19 10° N 21:58:09 68° NE 21:58:09 68° NE
S3M 4.1 22:05:25 65° WSW 22:05:48 67° W 22:12:12 10° N
Cosmos 883 Rocket 4.5 22:06:43 76° NE 22:06:43 76° NE 22:12:34 10° N
Cosmos 2263 Rocket 2.8 22:16:15 48° WNW 22:16:32 48° WNW 22:21:56 10° NNE
USA 229 DEB 4.1 22:20:03 10° NW 22:27:01 55° WSW 22:27:01 55° WSW
USA 229 4.1 22:20:08 10° NW 22:27:07 56° WSW 22:27:07 56° WSW
Lacrosse 5 rocket 3.5 22:23:41 10° NW 22:25:35 25° NW 22:25:35 25° NW
Cosmos 1844 Rocket 4.0 22:30:56 31° NE 22:30:56 31° NE 22:33:59 10° NE
ALOS 2 4.3 22:35:37 31° N 22:35:37 31° N 22:37:57 10° N
Terra 4.3 22:42:44 12° W 22:42:44 12° W 22:44:07 10° WNW
NOSS 3-1 (A) 4.5 22:37:51 10° NW 22:45:03 50° WSW 22:45:03 50° WSW
Cosmos 2154 Rocket 4.4 22:58:27 10° N 23:04:10 56° NE 23:04:10 56° NE
SJ 16-02 4.1 23:17:22 11° ENE 23:17:22 11° ENE 23:17:44 10° ENE
Cosmos 2184 Rocket 4.2 23:09:31 10° N 23:14:58 67° NNW 23:14:58 67° NNW
Cosmos 2278 Rocket 4.1 23:19:29 19° ENE 23:19:29 19° ENE 23:21:58 10° NE
ATLAS 5 CENTAUR R/B 3.5 23:20:36 10° NNW 23:25:41 38° NE 23:27:06 33° ENE
SeaSat 1 4.2 23:26:52 10° N 23:30:49 25° NW 23:31:05 24° NW
Cosmos 1844 4.3 23:41:40 52° NNW 23:41:40 52° NNW 23:46:28 10° NNE
USA 281 3.2 23:43:08 80° NE 23:43:08 80° NE 23:49:34 10° NNW
COSMOS 2406 4.0 23:39:29 10° NNW 23:44:55 44° ENE 23:44:55 44° ENE
Gbstr 26 Del rocket 4.2 23:53:47 58° NE 23:53:47 58° NE 23:58:10 10° ENE
